This is the latest recevied weather packets stored in our database for station/object 5B4APJ-13. If no packets are shown the sender has not sent any weather packets the latest 10 day(s).
| Time | Temp. | Humidity | Pressure | Rain* | Wind** | Luminosity | Snow |
|---|---|---|---|---|---|---|---|
| 1777724826 | 20.56° C | 55% | 1011.3 hPa | 0 mm | 1.79 m/s, 304° | 241 W/m² | - |
| 1777724526 | 20.56° C | 56% | 1011.4 hPa | 0 mm | 1.34 m/s, 270° | 258 W/m² | - |
| 1777724226 | 20.56° C | 56% | 1011.5 hPa | 0 mm | 1.79 m/s, 293° | 281 W/m² | - |
| 1777723927 | 20° C | 57% | 1011.6 hPa | 0 mm | 2.24 m/s, 240° | 286 W/m² | - |
| 1777723627 | 20.56° C | 56% | 1011.5 hPa | 0 mm | 1.79 m/s, 267° | 275 W/m² | - |
| 1777723326 | 20.56° C | 56% | 1011.5 hPa | 0 mm | 1.79 m/s, 301° | 331 W/m² | - |
| 1777723026 | 20° C | 56% | 1011.6 hPa | 0 mm | 2.68 m/s, 295° | 404 W/m² | - |
| 1777722726 | 20° C | 55% | 1011.4 hPa | 0 mm | 2.24 m/s, 314° | 452 W/m² | - |
| 1777722426 | 20° C | 57% | 1011.9 hPa | 0 mm | 1.79 m/s, 272° | 458 W/m² | - |
| 1777722126 | 19.44° C | 57% | 1011.8 hPa | 0 mm | 1.79 m/s, 260° | 441 W/m² | - |
| 1777721827 | 19.44° C | 59% | 1011.8 hPa | 0 mm | 2.68 m/s, 292° | 428 W/m² | - |
| 1777721527 | 19.44° C | 59% | 1011.8 hPa | 0 mm | 1.34 m/s, 260° | 297 W/m² | - |
| 1777721226 | 19.44° C | 60% | 1011.9 hPa | 0 mm | 2.24 m/s, 301° | 266 W/m² | - |
| 1777720926 | 19.44° C | 60% | 1012.2 hPa | 0 mm | 0.89 m/s, 314° | 252 W/m² | - |
| 1777720626 | 19.44° C | 59% | 1012.4 hPa | 0 mm | 3.58 m/s, 303° | 200 W/m² | - |
| 1777720326 | 19.44° C | 61% | 1012.3 hPa | 0 mm | 1.34 m/s, 352° | 194 W/m² | - |
| 1777720026 | 19.44° C | 63% | 1012.2 hPa | 0 mm | 0 m/s | 275 W/m² | - |
| 1777719726 | 19.44° C | 64% | 1012.3 hPa | 0 mm | 0.45 m/s, 274° | 252 W/m² | - |
| 1777719426 | 19.44° C | 64% | 1012.4 hPa | 0 mm | 0.89 m/s, 332° | 229 W/m² | - |
| 1777719127 | 19.44° C | 62% | 1012.4 hPa | 0 mm | 0.45 m/s, 33° | 231 W/m² | - |
| 1777718827 | 18.89° C | 63% | 1012.3 hPa | 0 mm | 0 m/s | 184 W/m² | - |
| 1777718527 | 18.89° C | 61% | 1012.3 hPa | 0 mm | 0.45 m/s, 252° | 172 W/m² | - |
| 1777718227 | 18.89° C | 62% | 1012.2 hPa | 0 mm | 0.45 m/s, 251° | 173 W/m² | - |
| 1777717927 | 18.89° C | 65% | 1012.2 hPa | 0 mm | 0 m/s | 177 W/m² | - |
| 1777717627 | 18.89° C | 63% | 1012.4 hPa | 0 mm | 0 m/s | 170 W/m² | - |
* Rain latest hour (hover to see other rain measurements)
** Current wind speed in m/s (hover to see current wind gust speed)